This demonstration page uses our WeatherBlox Daily Observations layout. Learn more.

Left ArrowRight Arrow

Hourly Observations for November 25, 2015

Temp ( °F °C ) Dew Point ( °F °C ) Humidity (%) Winds ( mph kmh ) Pressure ( in mb ) Visibility ( mi km ) Precip ( " mm )
12:53 am 00:53 Clear 36 2.2 31 -0.6 82 82 Calm 29.88 1012 10 16 0.00 0.00
1:53 am 01:53 Clear 34 1.1 29 -1.7 82 82 Calm 29.89 1012 10 16 0.00 0.00
2:53 am 02:53 Cloudy 34 1.1 29 -1.7 82 82 Calm 29.90 1013 10 16 0.00 0.00
3:53 am 03:53 Clear 34 1.1 30 -1.1 85 85 Calm 29.90 1013 10 16 0.00 0.00
4:53 am 04:53 Clear 34 1.1 30 -1.1 85 85 Calm 29.90 1013 10 16 0.00 0.00
5:53 am 05:53 Mostly Clear 35 1.7 30 -1.1 82 82 Calm 29.91 1013 10 16 0.00 0.00
6:53 am 06:53 Mostly Clear 35 1.7 30 -1.1 82 82 Calm 29.91 1013 10 16 0.00 0.00
7:53 am 07:53 Mostly Cloudy 35 1.7 31 -0.6 85 85 Calm 29.92 1013 10 16 0.00 0.00
8:53 am 08:53 Mostly Cloudy 37 2.8 33 0.6 86 86 Calm 29.94 1014 10 16 0.00 0.00
9:53 am 09:53 Mostly Sunny 42 5.6 36 2.2 79 79 Calm 29.94 1014 10 16 0.00 0.00
10:53 am 10:53 Sunny 47 8.3 35 1.7 63 63 Calm 29.95 1014 10 16 0.00 0.00
11:53 am 11:53 Sunny 50 10 32 0 50 50 Calm 29.93 1014 10 16 0.00 0.00
12:53 pm 12:53 Partly Cloudy 54 12 30 -1 41 41 Calm 29.94 1014 10 16 0.00 0.00
1:53 pm 13:53 Mostly Sunny 52 11.1 29 -1.7 41 41 ENE 14 22 29.92 1013 10 16 0.00 0.00
2:53 pm 14:53 Mostly Cloudy 52 11.1 29 -1.7 41 41 ENE 13 20 29.94 1014 10 16 0.00 0.00
3:53 pm 15:53 Partly Cloudy 51 10.6 28 -2.2 41 41 NE 13 20 29.96 1015 10 16 0.00 0.00
4:53 pm 16:53 Mostly Cloudy 49 9.4 28 -2.2 44 44 ENE 12 19 29.98 1015 10 16 0.00 0.00
5:53 pm 17:53 Mostly Clear 47 8.3 28 -2.2 48 48 NNE 9 15 30.01 1016 10 16 0.00 0.00
6:53 pm 18:53 Clear 46 7.8 27 -2.8 47 47 NNE 10 17 30.02 1017 10 16 0.00 0.00
7:53 pm 19:53 Clear 45 7.2 27 -2.8 49 49 NNE 9 15 30.03 1017 10 16 0.00 0.00
8:53 pm 20:53 Clear 43 6.1 27 -2.8 53 53 NNE 10 17 30.04 1017 10 16 0.00 0.00
9:53 pm 21:53 Clear 45 7.2 24 -4.4 44 44 NNE 20 31 30.04 1017 10 16 0.00 0.00
10:53 pm 22:53 Clear 44 6.7 24 -4.4 45 45 N 13 20 30.06 1018 10 16 0.00 0.00
11:53 pm 23:53 Clear 44 6.7 23 -5 43 43 N 14 22 30.09 1019 10 16 0.00 0.00

Powered by AerisWeather